Wind_Speed
21 22 21 18 18 18 18 21 25 24 26 23 20 20 21 22 21 21 20 19 16 15 14 14 13 14 14
18 18 15 12 12 17 20 22 21 19 19 19 20 21 20 16 18 19 19 17 16 15 15 13 13 13 14
12 11 9 7 10 13 15 15 15 15 15 15 14 14 18 19 19 17 14 16 15 13 13 13 14 14 15
8 8 7 7 7 8 10 11 12 12 11 12 14 17 20 20 19 17 16 14 13 14 14 14 15 15 15
7 7 7 7 9 9 9 10 10 11 14 16 19 19 16 15 13 14 14 14 14 14 14 15 16 16 16
6 6 7 7 7 9 10 10 11 13 15 13 16 13 14 13 13 14 14 14 15 16 18 17 16 16 17
7 8 10 11 11 12 12 13 14 14 14 11 10 10 11 12 13 14 15 16 17 17 18 19 20 21 23
8 8 10 11 12 13 14 13 12 11 11 11 7 8 10 13 15 15 15 13 12 17 20 21 23 25 25
9 8 8 8 8 9 8 8 8 8 9 11 11 10 12 14 15 14 12 11 16 19 21 22 25 26 25
8 7 6 6 7 8 9 10 10 8 8 9 12 12 8 10 11 14 15 18 18 18 20 21 23 23 21
5 4 5 6 8 10 10 12 13 14 13 15 15 16 15 18 16 14 19 16 17 16 18 19 15 18 23
6 7 8 9 12 13 13 15 16 16 15 16 20 19 19 23 26 21 18 17 16 14 12 12 17 17 21
10 11 12 13 14 16 15 15 16 16 16 17 18 19 21 24 27 28 26 23 16 6 17 16 18 18 22
13 14 14 15 14 15 16 16 17 15 14 15 17 20 23 25 26 29 25 26 24 19 19 20 22 22 22
16 15 14 14 14 14 14 15 16 16 14 12 14 17 21 25 29 28 27 27 24 23 22 26 26 24 24
17 16 16 15 16 15 15 16 18 16 16 14 15 16 17 22 24 27 24 24 26 22 25 29 29 23 24
18 17 17 17 16 17 16 17 18 18 17 16 15 16 21 26 28 22 22 22 28 32 27 27 29 26 25
Wind_Direction
296 296 285 274 266 263 254 252 258 256 260 259 246 244 246 249 255 261 265 269 266 267 266 267 264 265 265
289 286 278 269 260 260 256 258 258 258 259 253 249 249 254 258 258 261 269 267 265 268 268 266 265 268 273
298 291 282 278 260 255 254 255 259 261 254 251 254 252 251 260 264 266 265 259 264 266 269 268 268 269 268
288 282 278 276 272 265 262 267 269 269 269 262 261 263 266 268 270 269 265 265 270 270 270 275 277 277 278
288 281 280 288 284 281 278 276 272 269 270 276 273 274 274 263 260 263 265 265 265 268 272 272 272 276 276
280 284 288 286 281 278 274 273 281 283 284 280 272 267 267 262 258 259 261 265 268 272 274 273 276 280 280
291 285 283 283 282 280 282 287 293 291 287 280 271 263 261 263 266 269 270 270 270 267 269 281 282 280 281
304 297 287 280 277 278 280 283 283 279 287 289 267 255 261 267 274 271 261 255 262 272 275 279 279 278 279
308 308 303 300 288 284 282 285 285 281 277 277 281 266 273 273 269 264 243 249 284 277 275 277 279 280 282
301 301 298 284 278 284 288 288 292 301 286 278 275 294 300 280 264 252 230 282 282 273 275 278 283 287 286
321 309 296 288 282 278 277 278 278 274 274 284 284 290 292 284 270 259 265 272 283 274 276 280 275 287 290
304 297 290 284 285 282 277 275 283 285 282 274 278 286 290 292 293 293 297 300 300 286 269 272 282 286 287
297 292 288 286 285 286 287 287 286 287 290 286 280 280 279 281 289 297 305 309 314 278 300 285 287 287 289
290 288 284 283 284 285 286 287 287 291 292 290 283 278 275 274 281 289 295 296 304 308 300 292 292 293 293
293 290 290 292 293 292 292 291 292 298 300 302 296 286 275 274 277 283 292 292 298 306 299 299 297 300 299
289 291 291 291 293 293 292 292 295 299 302 307 305 300 292 280 280 290 286 287 295 294 302 303 303 302 304
288 288 289 290 291 293 296 294 293 296 298 302 301 301 303 298 302 300 294 295 301 300 300 295 298 303 305
Height
1488 1488 1487 1486 1486 1487 1488 1490 1491 1490 1493 1494 1497 1498 1499 1499 1499 1502 1499 1501 1501 1501 1503 1504 1503 1504 1506
1485 1484 1483 1483 1481 1484 1484 1486 1487 1487 1489 1491 1492 1493 1494 1494 1496 1494 1494 1495 1495 1495 1497 1498 1497 1498 1500
1483 1482 1481 1481 1481 1482 1482 1483 1483 1484 1486 1487 1488 1490 1489 1489 1491 1489 1489 1491 1491 1491 1492 1492 1491 1492 1493
1482 1482 1481 1481 1480 1481 1481 1481 1482 1482 1483 1484 1484 1484 1485 1484 1483 1484 1486 1487 1486 1487 1487 1486 1486 1487 1488
1481 1481 1481 1480 1480 1480 1479 1480 1481 1481 1481 1479 1479 1480 1479 1479 1480 1482 1482 1483 1484 1482 1482 1482 1483 1483 1482
1480 1479 1479 1479 1479 1479 1479 1478 1479 1477 1475 1477 1475 1477 1476 1476 1477 1479 1480 1479 1478 1478 1478 1478 1477 1477 1477
1477 1478 1477 1477 1476 1476 1476 1475 1475 1474 1473 1474 1474 1474 1474 1474 1475 1475 1475 1475 1474 1474 1474 1474 1473 1473 1472
1475 1475 1475 1475 1474 1474 1474 1473 1473 1472 1472 1471 1471 1471 1472 1471 1471 1470 1470 1470 1471 1471 1470 1469 1468 1467 1466
1473 1473 1472 1472 1472 1472 1472 1471 1471 1470 1470 1469 1468 1468 1468 1467 1466 1466 1466 1467 1467 1466 1465 1464 1463 1461 1459
1472 1471 1471 1471 1471 1471 1471 1470 1469 1468 1467 1467 1465 1466 1464 1463 1462 1462 1463 1463 1462 1461 1460 1458 1456 1453 1452
1471 1471 1471 1471 1470 1470 1469 1468 1467 1466 1466 1464 1463 1463 1462 1460 1459 1461 1460 1459 1457 1455 1453 1452 1451 1449 1446
1470 1470 1470 1469 1468 1467 1466 1465 1464 1464 1463 1462 1460 1460 1458 1455 1452 1452 1453 1452 1451 1449 1448 1447 1446 1444 1441
1469 1468 1467 1467 1466 1464 1463 1462 1461 1460 1459 1458 1456 1455 1454 1452 1448 1446 1445 1444 1444 1444 1443 1442 1440 1438 1435
1467 1465 1464 1463 1462 1461 1460 1458 1457 1456 1455 1453 1451 1450 1448 1446 1445 1442 1442 1440 1440 1439 1436 1434 1433 1431 1429
1463 1461 1460 1459 1458 1456 1455 1454 1453 1451 1450 1449 1447 1445 1443 1442 1438 1438 1436 1435 1434 1432 1430 1426 1425 1423 1420
1459 1457 1456 1455 1454 1453 1451 1449 1447 1447 1445 1445 1442 1440 1438 1436 1435 1432 1431 1428 1428 1426 1424 1419 1415 1416 1413
1454 1453 1452 1450 1449 1448 1447 1445 1443 1442 1441 1440 1438 1436 1432 1428 1427 1428 1424 1423 1420 1417 1416 1413 1409 1407 1405